Location: Burera
(21.3780°N, 81.9534°E)
Time: 01:18:47
(UTC+00:00)

Cosmos 494 Rocket - Pass Details

Date: 13 August 2020
Orbit: 742 x 771 km, 74.1° (Epoch: 22 September)

Event Time Altitude Azimuth Distance (km) Brightness Sun altitude
Rises 22:24:41 0° 345° (NNW) 3,203 7.4 -23.7°
Reaches altitude 10° 22:27:02 10° 346° (NNW) 2,281 6.6 -23.2°
Maximum altitude 22:32:13 89° 261° (W) 764 3.9 -22.2°
Drops below altitude 10° 22:37:26 10° 167° (SSE) 2,293 6.3 -21.1°
Sets 22:39:48 0° 167° (SSE) 3,220 7.1 -20.6°
